Lexington Weather

Lexington, Massachusetts, USA

34°F
4/16/2021 10:11am 
  • Lexington Conditions: Snow, Fog, Overcast
  • Temperature: 33.8°F / 1.0°CColder 0.7°F than last hour.
  • Dew Point: 32.5°FDecreased 0.4°Fsince last hour.
  • Relative Humidity: 95%Increased 1.0% since last hour.
  • Wind: Calm, 10-min avg: Calm, gust: None
  • Barometer: 29.49 in Steady
  • Visibility: ½ mile
  • Snow Today: 1.3 in
  •   

Regional Weather Roundup
for Boston / Norton, MA

        
000
ASUS41 KBOX 132304
RWRBOX

REGIONAL WEATHER ROUNDUP
NATIONAL WEATHER SERVICE BOSTON/NORTON MA
700 PM EDT TUE APR 13 2021

NOTE:  "FAIR" INDICATES FEW OR NO CLOUDS BELOW 12,000 FEET WITH NO 
SIGNIFICANT WEATHER AND/OR OBSTRUCTIONS TO VISIBILITY.

MAZALL-140000-
EASTERN MASSACHUSETTS
  
CITY           SKY/WX    TMP DP  RH WIND       PRES   REMARKS
BOSTON         PTCLDY    52  39  61 S3        30.03S                  
BEVERLY        CLEAR     52  39  61 SE6       30.02S                  
LAWRENCE       CLEAR     60  39  45 E6        30.03S                  
BEDFORD        CLEAR     58  40  51 SW3       30.01S                  
BLUE HILL        N/A     53  39  59 E7        30.01F                  
NORWOOD        CLEAR     58  38  47 VRB3      30.03S                  
MARSHFIELD     CLEAR     52  39  62 CALM      30.02F                  
PLYMOUTH       CLEAR     51  39  63 CALM      30.02S                  
TAUNTON        CLEAR     57  39  51 N5        30.02S                  
NEW BEDFORD    CLEAR     55  39  54 NE7       30.01F                  
$$

MAZALL-140000-
CAPE COD AND THE ISLANDS
  
CITY           SKY/WX    TMP DP  RH WIND       PRES   REMARKS
FALMOUTH       CLEAR     50  39  66 NE8       30.02S                  
HYANNIS        CLEAR     49  41  74 N7        30.00S                  
CHATHAM        CLEAR     48  38  68 NE8       30.03R                  
PROVINCETOWN   PTCLDY    47  42  83 CALM      30.03S                  
NANTUCKET      CLEAR     47  40  76 N14       30.01R                  
MARTHAS VNYRD  CLEAR     51  40  65 N9        30.01S                  
$$
 
MAZALL-140000-
CENTRAL AND WESTERN MASSACHUSETTS
  
CITY           SKY/WX    TMP DP  RH WIND       PRES   REMARKS
WORCESTER      PTCLDY    58  39  49 E3        30.02S                  
FITCHBURG      MOCLDY    62  40  44 SE7       30.02R                  
ORANGE         CLOUDY    62  41  46 CALM      30.02R                  
SPRINGFIELD    MOCLDY    63  41  45 CALM      30.00R                  
WESTFIELD      CLOUDY    63  42  46 CALM      30.00R                  
NORTH ADAMS    CLOUDY    61  45  55 CALM      30.01R                  
PITTSFIELD     CLOUDY    59  41  51 NW6       30.00R                  
$$
 
RIZALL-140000-
RHODE ISLAND
  
CITY           SKY/WX    TMP DP  RH WIND       PRES   REMARKS
PROVIDENCE     PTCLDY    57  39  51 NE12      30.04R                  
NEWPORT        CLEAR     54  39  57 NE10      30.03R                  
BLOCK ISLAND   CLEAR     47  40  76 E9        30.04R                  
SMITHFIELD     CLEAR     56  40  55 NE6       30.04R                  
WESTERLY       CLEAR     48  41  76 SE8       30.03R                  
$$
 
CTZALL-140000-
CONNECTICUT
  
CITY           SKY/WX    TMP DP  RH WIND       PRES   REMARKS
BRADLEY INTL   MOCLDY    64  40  41 NE5       30.00R                  
HARTFORD       CLOUDY    61  40  45 S9        30.01R                  
BRIDGEPORT     MOCLDY    52  41  66 SE13      30.03R                  
DANBURY        CLOUDY    65  41  41 NW5       30.02R                  
GROTON         CLEAR     47  42  83 SW8       30.04R                  
NEW HAVEN      MOCLDY    52  42  69 S8        30.04R                  
CHESTER        FAIR      52  39  62 S5        30.04R                  
MERIDEN        CLOUDY    57  38  48 S8        30.03R                  
WILLIMANTIC    MOCLDY    62  39  42 E7        30.01F                  
OXFORD         CLOUDY    58  43  57 SE10      30.03R                  
$$

MEZ002-015-021-024-NHZ003-005-008-011-012-014-VTZ005-008-140000-
NORTHERN NEW ENGLAND
  
CITY           SKY/WX    TMP DP  RH WIND       PRES   REMARKS
PORTLAND ME    PTCLDY    54  40  59 S8        30.01S                  
BANGOR ME      CLEAR     57  36  45 NE12      30.01R                  
CONCORD NH     CLOUDY    61  40  45 SE5       30.00S                  
MANCHESTER NH  PTCLDY    61  39  44 S5        29.99S                  
NASHUA NH      CLEAR     58  42  55 CALM      30.02R                  
PORTSMOUTH NH  MOCLDY    56  36  47 SE8       30.02S                  
JAFFREY NH     MOCLDY    56  43  61 CALM      30.02R                  
KEENE NH       CLOUDY    60  44  55 CALM      30.01R                  
BURLINGTON VT  MOCLDY    64  40  41 NW7       30.00S                  
MT. WASHINGTON CLOUDY    36  34  93 N13         N/A  WCI  27          
$$

NYZ052-076-140000-
EASTERN NEW YORK
  
CITY           SKY/WX    TMP DP  RH WIND       PRES   REMARKS
ALBANY         MOCLDY    62  41  46 CALM      30.01S                  
NEW YORK CITY  PTCLDY    63  40  42 N6        30.01S                  
$$
 
ANZALL-140000-
MARINE OBSERVATIONS
  
STATION/POSITION TIME  TEMP    WIND        PRES    VSBY  WAVE
                       AIR SEA DIR/SP/G                  HT/PER
                 (UTC) (F)     (DEG/KT/KT) (MB)    (MI)  (FT/S)
BOSTON BUOY      2240   46 45  200/  4/  6 1017.2F
BUZZARDS BAY     2200           60/ 15/ 15 1017.6R
NANTUCKET SOUND  2240      47                N/A
MASS BAY-STELLWA 2204   50     140/  2/  4 1015.9R  1 7/8  5/ 8
ISLE OF SHOALS   2200   47     170/  6/  6 1016.1R
S OF BLOCK IS    2226      44                N/A           4/ 7
$$

......................KEY.........................
  SKY/WX - SKY CONDITION/PRESENT WEATHER
  TMP    - TEMPERATURE IN FAHRENHEIT
  DWPT   - DEWPOINT IN FAHRENHEIT
  RH     - RELATIVE HUMIDITY IN PERCENT
  WIND   - DIRECTION AND SPEED IN MPH
  PRES   - MEAN SEA LEVEL PRESSURE IN INCHES OF HG
  WCI    - WIND CHILL INDEX
  VSB    - VISIBILITY IN MILES
  HX     - HEAT INDEX
  TC     - TEMPERATURE IN CELSIUS
  VRB    - VARIABLE WIND DIRECTION
  N/A    - NOT AVAILABLE
  
      

Other recent Regional Weather Roundups

Fri Apr 16, 10:05am

Fri Apr 16, 9:04am

Fri Apr 16, 8:04am

Fri Apr 16, 7:04am

Fri Apr 16, 6:04am

Fri Apr 16, 5:04am

Fri Apr 16, 4:04am

Fri Apr 16, 3:04am

Fri Apr 16, 2:04am

Fri Apr 16, 1:04am

Fri Apr 16, 12:04am

Thu Apr 15, 11:05pm

Thu Apr 15, 10:04pm

Thu Apr 15, 9:04pm

Thu Apr 15, 8:04pm

Thu Apr 15, 7:05pm

Thu Apr 15, 6:04pm

Thu Apr 15, 5:05pm

Thu Apr 15, 4:04pm

Thu Apr 15, 3:05pm

Thu Apr 15, 2:04pm

Thu Apr 15, 1:05pm

Thu Apr 15, 12:04pm

Thu Apr 15, 11:04am

Thu Apr 15, 10:05am

Thu Apr 15, 9:04am

Thu Apr 15, 8:04am

Thu Apr 15, 7:04am

Thu Apr 15, 6:04am

Thu Apr 15, 5:04am

Thu Apr 15, 4:04am

Thu Apr 15, 3:04am

Thu Apr 15, 2:04am

Thu Apr 15, 1:04am

Thu Apr 15, 12:04am

Wed Apr 14, 11:04pm

Wed Apr 14, 10:04pm

Wed Apr 14, 9:04pm

Wed Apr 14, 8:04pm

Wed Apr 14, 7:04pm

Wed Apr 14, 6:04pm

Wed Apr 14, 5:05pm

Wed Apr 14, 4:04pm

Wed Apr 14, 3:05pm

Wed Apr 14, 2:04pm

Wed Apr 14, 1:05pm

Wed Apr 14, 12:04pm

Wed Apr 14, 11:04am

Wed Apr 14, 10:04am

Wed Apr 14, 9:04am

Wed Apr 14, 8:04am

Wed Apr 14, 7:04am

Wed Apr 14, 6:04am

Wed Apr 14, 5:04am

Wed Apr 14, 4:04am

Wed Apr 14, 3:04am

Wed Apr 14, 2:04am

Wed Apr 14, 1:04am

Wed Apr 14, 12:04am

Tue Apr 13, 11:04pm

Tue Apr 13, 10:05pm

Tue Apr 13, 9:05pm

Tue Apr 13, 8:05pm

Tue Apr 13, 6:04pm

Tue Apr 13, 5:05pm

Tue Apr 13, 4:04pm

Tue Apr 13, 3:04pm

Tue Apr 13, 2:05pm

Tue Apr 13, 1:04pm

Tue Apr 13, 12:05pm

Tue Apr 13, 11:05am

Tue Apr 13, 10:04am

Tue Apr 13, 9:04am

Tue Apr 13, 8:04am

Tue Apr 13, 7:04am

Tue Apr 13, 6:04am

Tue Apr 13, 5:04am

Tue Apr 13, 4:04am

Tue Apr 13, 3:04am

Tue Apr 13, 2:04am

Tue Apr 13, 1:04am

Tue Apr 13, 12:05am

Mon Apr 12, 11:04pm

Mon Apr 12, 10:04pm

Mon Apr 12, 9:04pm

Mon Apr 12, 8:04pm

Mon Apr 12, 7:05pm

Mon Apr 12, 6:04pm

Mon Apr 12, 5:04pm

Mon Apr 12, 4:04pm

Mon Apr 12, 3:05pm

Mon Apr 12, 2:04pm

Mon Apr 12, 1:05pm

Mon Apr 12, 12:04pm

Mon Apr 12, 11:04am

Mon Apr 12, 10:04am

Mon Apr 12, 9:04am

Mon Apr 12, 8:04am

Mon Apr 12, 7:04am

Mon Apr 12, 6:04am

Mon Apr 12, 5:04am

Mon Apr 12, 4:04am

Mon Apr 12, 3:04am

Mon Apr 12, 2:04am

Mon Apr 12, 1:05am

Mon Apr 12, 12:04am

Sun Apr 11, 11:04pm

Sun Apr 11, 10:04pm

Sun Apr 11, 9:04pm

Sun Apr 11, 8:04pm

Sun Apr 11, 7:04pm

Sun Apr 11, 6:05pm

Sun Apr 11, 5:05pm

Sun Apr 11, 4:04pm

Sun Apr 11, 3:05pm

Sun Apr 11, 2:05pm

Sun Apr 11, 1:05pm

Sun Apr 11, 12:04pm

Sun Apr 11, 11:05am

Sun Apr 11, 10:05am

Sun Apr 11, 9:04am

Sun Apr 11, 8:04am

Sun Apr 11, 7:04am

Sun Apr 11, 6:04am

Sun Apr 11, 5:04am

Sun Apr 11, 4:04am

Sun Apr 11, 3:04am

Sun Apr 11, 2:04am

Sun Apr 11, 1:05am

Sun Apr 11, 12:04am

Sat Apr 10, 11:05pm

Sat Apr 10, 10:04pm

Sat Apr 10, 9:04pm

Sat Apr 10, 8:04pm

Sat Apr 10, 7:05pm

Sat Apr 10, 6:04pm

Sat Apr 10, 5:04pm

Sat Apr 10, 4:04pm

Sat Apr 10, 3:04pm

Sat Apr 10, 2:05pm

Sat Apr 10, 1:04pm

Sat Apr 10, 12:04pm

Sat Apr 10, 11:04am

Sat Apr 10, 10:04am

Sat Apr 10, 9:04am

Sat Apr 10, 8:04am

Sat Apr 10, 7:04am

Sat Apr 10, 6:04am

Sat Apr 10, 5:04am

Sat Apr 10, 4:04am

Sat Apr 10, 3:04am

Sat Apr 10, 2:04am

Sat Apr 10, 1:05am

Sat Apr 10, 12:04am

Fri Apr 9, 11:04pm

Fri Apr 9, 10:05pm

Fri Apr 9, 9:04pm

Fri Apr 9, 8:05pm

Fri Apr 9, 7:05pm

Fri Apr 9, 6:04pm

Fri Apr 9, 5:04pm

Fri Apr 9, 4:05pm

Fri Apr 9, 3:05pm

Fri Apr 9, 2:04pm

Fri Apr 9, 1:04pm

Fri Apr 9, 12:04pm

Fri Apr 9, 11:05am

Meta data:

ID: 2e4a464f-308c-45ea-b202-618db41176ff
Link: https://api.weather.gov/products/2e4a464f-308c-45ea-b202-618db41176ff